Погода в Паринтинсе

Бразилия     2°37′51″S   56°44′00″W
темп.,
°C
ветер,
м/с
пор.,
м/с
влажн.,
%
обл.,
%
осадки,
мм/ч
давл.,
гПа
погр.,
м
14 августа, вс
вс1423:00+24юв117416 0.0 101311
02:00+23в117699 0.0 101220
05:00+23всв118137 0.4 101335
08:00+26всв27785 0.9 1014412
11:00+34всв35415 0.0 10131940
14:00+30юв265590 0.0 1010289
17:00+23юз139199 1.2 101068
20:00+23вюв149196 1.7 101292
15 августа, пн
пн1523:00+23вюв1390100 0.0 101391
02:00+22в11935 0.0 101125
05:00+21ссв119136 0.0 101011
08:00+27ссв136651 0.0 1012325
11:00+29вюв245798 0.0 1012514
14:00+38в142982 0.0 10072958
17:00+31ююв13546 0.0 1007109
20:00+26вюв11691 0.0 100911
16 августа, вт
вт1623:00+24св11725 0.0 101115
02:00+23всв24705 0.0 100980
05:00+23ссв117241 0.0 100916
08:00+28св25595 0.0 1012412
11:00+35св23350 0.0 10111944
14:00+38всв2228100 0.0 10073267
17:00+34всв114328 0.0 100622
20:00+27ююв12626 0.1 100951
17 августа, ср
ср1723:00+25ссв13697 0.0 101058
02:00+23ссв137554 0.1 100852
05:00+22с118010 0.0 100930
08:00+28св13605 0.1 1012387
11:00+35св23372 0.0 10101712
14:00+38в232862 0.0 10063415
17:00+31в484688 0.0 1006414
20:00+30всв1245100 0.1 100837
18 августа, чт
чт1823:00+27в11585 0.0 100918
02:00+24св14693 0.0 100880
05:00+24всв26685 0.0 1008131
08:00+29всв26545 0.0 1011485
11:00+36всв24355 0.0 10101886
14:00+39в242799 0.0 10063659
17:00+26ссв2775100 0.4 1007135
20:00+25в227712 0.9 100934